GSAT0207 (GALILEO 15)

Last updated on Thu Nov 21 2024 00:02:30 GMT+0000 (Coordinated Universal Time)

1 41859U 16069A 24324.48041039 .00000036 00000+0 00000+0 0 9990 2 41859 55.1655 117.0102 0001703 315.3000 44.6588 1.70474328 49601
UTC large
Height (km)
Speed (km/s)
/
Latitude / Longitude
Inclination (degrees)
Orbital Period (minutes)
Azimuth
Elevation
Range (km)
Doppler Factor

Next 0 passes for location: London (51.5072 / 0.1276)

Sorry there are no passes over London.